Flag for Germany Weather past 2 weeks in Ravensburg, Baden-Württemberg, Germany

Now
50 °F

Sunny.


Feels Like: 47 °F
Forecast: 46 / 68 °F
Wind: 8 mph from North

Location: Friedrichshafen Airport

Current Time: May 23, 2015 at 9:25:21 AM

Latest Report: May 23, 2015 at 8:50 AM


Visibility: 10 mi

Pressure: 30.09 "Hg

Humidity: 71%

Dew point: 41 °F

Location of RavensburgLocation

Historic Weather in Ravensburg — Graph

°F

Ravensburg temperature yesterday

Maximum temperature yesterday: 59 °F (at 2:20 PM)
Minimum temperature yesterday: 45 °F (at 6:20 AM)
Average temperature yesterday: 52 °F

Past Weeks' High & Low Weather Summary

 TemperatureHumidityPressure
High82 °F (May 12, 4:20 PM)94% (May 10, 7:20 AM)30.39 "Hg (May 10, 7:20 AM)
Low43 °F (May 21, 1:50 AM)26% (May 12, 5:20 PM)29.77 "Hg (May 18, 5:50 PM)
Average57 °F68%30.10 "Hg
* Reported May 8 7:20 AM — May 23 7:50 AM, Ravensburg, Weather by CustomWeather, © 2015

Note: Actual official high and low records may vary slightly from our data, if they occured in-between our weather recording intervals... More about our weather records

Advertising

Ravensburg weather history for previous 24 hours

 ConditionsComfort  
Time TempWeatherWind HumidityBarometerVisibility
7:50 AM
Sat, May 23
48 °FSunny.8 mph71%30.09 "Hg10 mi
7:20 AM48 °FSunny.8 mph71%30.09 "Hg10 mi
6:50 AM48 °FSunny.7 mph71%30.09 "Hg10 mi
6:20 AM46 °FClear.6 mph76%30.09 "Hg10 mi
5:50 AM46 °FClear.6 mph76%30.09 "Hg10 mi
5:20 AM46 °FClear.6 mph76%30.09 "Hg10 mi
4:50 AM46 °FClear.3 mph76%30.09 "Hg10 mi
4:20 AM46 °FPartly cloudy.3 mph76%30.09 "HgN/A
3:50 AM46 °FOvercast.5 mph76%30.09 "HgN/A
3:20 AM46 °FOvercast.5 mph76%30.12 "HgN/A
2:50 AM46 °FClear.5 mph76%30.12 "Hg10 mi
2:20 AM46 °FClear.5 mph76%30.12 "Hg10 mi
1:50 AM46 °FClear.6 mph82%30.12 "Hg10 mi
1:20 AM48 °FClear.5 mph71%30.15 "Hg10 mi
12:50 AM46 °FClear.3 mph82%30.15 "Hg10 mi
12:20 AM48 °FClear.3 mph76%30.15 "Hg10 mi
11:50 PM
Fri, May 22
46 °FClear.3 mph82%30.15 "Hg10 mi
11:20 PM48 °FClear.3 mph76%30.15 "Hg10 mi
10:50 PM50 °FClear.5 mph67%30.18 "Hg10 mi
10:20 PM50 °FClear.2 mph71%30.18 "Hg10 mi
9:50 PM50 °FSunny.2 mph67%30.18 "Hg10 mi
9:20 PM52 °FSunny.5 mph67%30.18 "Hg10 mi
8:50 PM55 °FSunny.5 mph51%30.18 "Hg10 mi
8:20 PM55 °FMostly cloudy.7 mph55%30.18 "HgN/A
7:50 PM57 °FPassing clouds.7 mph48%30.15 "HgN/A
7:20 PM57 °FPartly sunny.5 mph55%30.15 "HgN/A
6:50 PM55 °FPartly sunny.5 mph55%30.15 "HgN/A
6:20 PM57 °FMostly cloudy.5 mph51%30.18 "HgN/A
5:50 PM59 °FPartly sunny.7 mph48%30.18 "HgN/A
5:20 PM57 °FCloudy.3 mph51%30.18 "HgN/A
4:50 PM59 °FPartly sunny.5 mph51%30.18 "HgN/A
4:20 PM57 °FPartly sunny.5 mph48%30.18 "HgN/A
3:50 PM57 °FPassing clouds.9 mph55%30.21 "HgN/A
3:20 PM57 °FScattered clouds.8 mph51%30.21 "HgN/A
2:50 PM57 °FPartly sunny.12 mph48%30.21 "HgN/A
2:20 PM59 °FPartly sunny.7 mph45%30.21 "HgN/A
1:50 PM57 °FPartly sunny.12 mph48%30.24 "HgN/A
1:20 PM57 °FBroken clouds.9 mph51%30.24 "HgN/A
12:50 PM55 °FPartly sunny.3 mph55%30.24 "HgN/A
12:20 PM55 °FMostly cloudy.6 mph59%30.24 "HgN/A
11:50 AM55 °FPartly sunny.6 mph55%30.24 "HgN/A
11:20 AM55 °FPartly sunny.3 mph55%30.24 "HgN/A
10:50 AM54 °FScattered clouds.3 mph63%30.27 "HgN/A
10:20 AM54 °FSunny.7 mph63%30.27 "Hg10 mi
9:50 AM50 °FSunny.5 mph67%30.27 "Hg10 mi
9:20 AM48 °FSunny.6 mph71%30.27 "Hg10 mi
Weather by CustomWeather, © 2015

See weather overviewHow to use our weather pages